Location: Condor
(52.3263°N, 114.5541°W)
Time: 20:58:40
(UTC+00:00)

Oscar 19 - Pass Details

Date: 13 December 2023
Orbit: 771 x 789 km, 98.9° (Epoch: 04 March)

Event Time Altitude Azimuth Distance (km) Brightness Sun altitude
Rises 12:38:24 0° 16° (NNE) 3,281 14.0 -26.2°
Reaches altitude 10° 12:40:43 10° 17° (NNE) 2,351 13.2 -25.9°
Maximum altitude 12:45:55 86° 107° (ESE) 795 10.6 -25.1°
Drops below altitude 10° 12:51:07 10° 196° (SSW) 2,344 13.0 -24.3°
Sets 12:53:26 0° 197° (SSW) 3,271 13.8 -24.0°
